モス彗星

281P/MOSS (2023)

English version
Home page
Updated on March 7, 2023

---------------------------------------------------------------------

・ プロフィール

・ 軌道要素

Epoch 2023 Feb. 25.0 TT = JDT 2460000.5
T 2023 Feb. 1.40171 TT                                  Rudenko
q   4.0344585            (2000.0)            P               Q
n   0.09148259     Peri.   26.63863     -0.40230108     -0.91181384
a   4.8780218      Node    87.17848     +0.82460995     -0.39987891
e   0.1729314      Incl.    4.71815     +0.39770877     -0.09323295
P  10.8
>From 106 observations 2000 Nov. 17-2023 Feb. 20, mean residual 0".6.

・ 光度変化

        m1 = 11.0 + 5 logΔ + 10.0 log r

---------------------------------------------------------------------

軌道要素はM.P.E.C. 2023-D41に掲載されたものです。
光度グラフはComet for Windowsで作成したものです。

---------------------------------------------------------------------

Copyright(C) Seiichi Yoshida (comet@aerith.net). All rights reserved.